Regional Weather Roundup
Issued by NWS

Home | Current Version | Previous Version | Text Only | Print | Product List | Glossary Off
Versions: 1 2 3 4 5 6 7 8 9 10 11 12 13 14 15 16 17 18 19 20 21 22 23 24 25 26 27 28 29 30 31 32 33 34 35 36 37 38 39 40 41 42 43 44 45 46 47 48 49 50

707
ASUS44 KJAN 201603
RWRMS

MISSISSIPPI HOURLY WEATHER ROUNDUP
NATIONAL WEATHER SERVICE JACKSON MS
1100 AM CDT MON OCT 20 2014

NOTE: "FAIR: INDICATES FEW OR NO CLOUDS BELOW 12,000 FEET WITH NO
SIGNIFICANT WEATHER AND/OR OBSTRUCTIONS TO VISIBILITY.

MSZ001>002-007>008-010>013-018>021-025>028-034>036-201700-
NORTHWEST MISSISSIPPI

CITY           SKY/WX    TMP DP  RH WIND       PRES   REMARKS
CLARKSDALE     FAIR      66  50  55 CALM      30.12F
CLEVELAND      FAIR      65  53  63 CALM      30.11F
GREENWOOD      SUNNY     67  53  61 VRB5      30.12R
GREENVILLE     SUNNY     66  50  56 W3        30.11S
GRENADA          N/A    N/A N/A N/A MISG        N/A
OLIVE BRANCH   MOSUNNY   64  52  63 W6        30.10F
OXFORD         FAIR      63  48  59 W6        30.13S
TUNICA         SUNNY     64  50  59 SW5       30.11F
$$

MSZ003>006-009-014>017-022>024-029>033-037>039-201700-
NORTHEAST MISSISSIPPI

CITY           SKY/WX    TMP DP  RH WIND       PRES   REMARKS
COLUMBUS AFB   NOT AVBL
CORINTH        FAIR      64  48  55 W8          N/A
GOLDN TRIANGLE SUNNY     66  52  59 CALM      30.11S
TUPELO         SUNNY     65  50  58 VRB3      30.11S
$$

MSZ040-058-201700-
CENTRAL MISSISSIPPI

CITY           SKY/WX    TMP DP  RH WIND       PRES   REMARKS
JACKSON INTL   MOSUNNY   70  48  45 VRB3      30.10F
JACKSON HAWKNS SUNNY     69  47  45 NW5       30.10F
MERIDIAN KEY   SUNNY     69  48  47 CALM      30.10S
MERIDIAN NAS   MOSUNNY   68  50  52 CALM      30.10F
RAYMOND        FAIR      66  61  82 CALM      30.11S
VICKSBURG      SUNNY     67  53  61 SE3       30.11F
$$

MSZ059>079-201700-
SOUTH MISSISSIPPI

CITY           SKY/WX    TMP DP  RH WIND       PRES   REMARKS
BROOKHAVEN     FAIR      68  52  56 CALM      30.11F
COLUMBIA         N/A    N/A N/A N/A MISG        N/A
HATTIESBURG    SUNNY     67  52  58 CALM      30.11S
MCCOMB         SUNNY     70  49  47 NE3       30.09S
NATCHEZ        SUNNY     66  52  59 E3        30.11S
PINE BELT      SUNNY     66  39  37 CALM      30.11S
$$

MSZ080>082-201700-
COASTAL MISSISSIPPI

CITY           SKY/WX    TMP DP  RH WIND       PRES   REMARKS
BAY ST LOUIS   SUNNY     72  46  40 VRB5      30.08S
BILOXI         SUNNY     72  54  52 NE5       30.07F
PASCAGOULA     SUNNY     74  52  46 N6        30.07F
GULFPORT       SUNNY     73  51  46 VRB5      30.07S
$$



USA.gov is the U.S. government's official web portal to all federal, state and local government web resources and services.